Regional Weather Roundup
Issued by NWS

Home | Current Version | Previous Version | Graphics & Text | Print | Product List | Glossary On
Versions: 1 2 3 4 5 6 7 8 9 10 11 12 13 14 15 16 17 18 19 20 21 22 23 24 25 26 27 28 29 30 31 32 33 34 35 36 37 38 39 40 41 42 43 44 45 46 47 48 49 50
311
ASUS45 KCYS 261510
RWRWY

WYOMING REGIONAL WEATHER ROUNDUP
NATIONAL WEATHER SERVICE CHEYENNE WY
900 AM MDT MON SEP 26 2016

NOTE:  "FAIR" INDICATES FEW OR NO CLOUDS BELOW 12,000 FEET
WITH NO SIGNIFICANT WEATHER AND/OR OBSTRUCTIONS TO VISIBILITY.

WYZ001-261600-
YELLOWSTONE NATIONAL PARK

CITY           SKY/WX    TMP DP  RH WIND       PRES   REMARKS
LK YELLOWSTONE   N/A     37  35  92 CALM      30.57S
W YELLOWSTONE  NOT AVBL

$$
WYZ002>013-054>058-071-098>099-261600-
NORTHERN WYOMING

CITY           SKY/WX    TMP DP  RH WIND       PRES   REMARKS
JACKSON        SUNNY     39  36  87 MISG      30.54S
CODY           FAIR      52  43  71 S3        30.42S
GREYBULL       FAIR      46  43  89 SE5       30.40S
WORLAND        FAIR      50  43  77 VRB3      30.41R
SHERIDAN       FAIR      61  44  53 NW8       30.36S
BUFFALO        FAIR      59  40  49 N7        30.40R
GILLETTE       CLOUDY    54  43  66 W12       30.35R
HULETT         FAIR      54  39  58 SW9       30.35R
NEWCASTLE      CLOUDY    50  36  57 NW3       30.37S

$$
WYZ014>020-022>026-101>103-261600-
CENTRAL WYOMING

CITY           SKY/WX    TMP DP  RH WIND       PRES   REMARKS
BIG PINEY      FAIR      46  37  71 CALM      30.51S
PINEDALE       FAIR      43  36  75 CALM      30.52S
DUBOIS         FAIR      50  36  57 W3        30.48S
LANDER         FAIR      47  42  83 CALM      30.44R
RIVERTON       FAIR      48  45  89 CALM      30.45R
CASPER         FAIR      52  41  66 W7        30.42S
DOUGLAS        FAIR      48  40  73 NW10      30.42S

$$
WYZ021-027>030-104>119-261600-
SOUTHERN WYOMING

CITY           SKY/WX    TMP DP  RH WIND       PRES   REMARKS
EVANSTON       FAIR      45  34  65 SW5       30.52S
FORT BRIDGER   FAIR      52  37  56 W9        30.54R
ROCK SPRINGS   FAIR      46  37  71 S3        30.50S
DIXON          FAIR      44  33  64 SE3       30.54R
RAWLINS        FAIR      42  35  76 CALM      30.50S
SARATOGA       FAIR      46  32  57 SE7       30.51S
LARAMIE        FAIR      44  33  65 SE5       30.49R
CHEYENNE       FAIR      54  35  48 N5        30.44S
TORRINGTON     FAIR      46  39  76 W5        30.37S
PINE BLUFFS    FAIR      52  37  58 CALM      30.42S

$$




USA.gov is the U.S. government's official web portal to all federal, state and local government web resources and services.